BEIDOU-3 G3 (PRN 143)

Last updated on Wed Aug 19 2026 00:03:29 GMT+0000 (Coordinated Universal Time)

1 45807U 20040A 26230.58161916 -.00000359 00000+0 00000+0 0 9996 2 45807 2.5968 67.4714 0002228 299.0046 280.4038 1.00270760 22696
UTC large
Height (km)
Speed (km/s)
/
Latitude / Longitude
Inclination (degrees)
Orbital Period (minutes)
Azimuth
Elevation
Range (km)
Doppler Factor

Next 0 passes for location: London (51.5072 / 0.1276)

No passes found over London.
BEIDOU-3 G3 (PRN 143)